This demonstration page uses our WeatherBlox Daily Observations layout. Learn more.

41.55636, -103.73856

Hourly Observations for December 24, 2019

Temp ( °F °C ) Dew Point ( °F °C ) Humidity (%) Winds ( mph kmh ) Pressure ( in mb ) Visibility ( mi km ) Precip ( " mm )
12:58 am 00:58 Cloudy 42 5.3 20 -6.5 43 43 WSW 5 7 29.94 1014 10 16.0934 0 0
1:58 am 01:58 Mostly Cloudy 39 4 21 -6.2 48 48 SW 6 9 29.98 1015 10 16.0934 0 0
2:58 am 02:58 Mostly Cloudy 40 4.7 20 -6.9 43 43 W 5 7 29.95 1014 10 16.0934 0 0
3:58 am 03:58 Mostly Cloudy 42 5.3 20 -6.9 41 41 SW 6 9 29.93 1014 10 16.0934 0 0
4:58 am 04:58 Mostly Cloudy 39 3.9 20 -6.9 46 46 SW 7 11 29.96 1014 10 16.0934 0 0
5:58 am 05:58 Mostly Cloudy 38 3.4 21 -6.3 49 49 Calm 29.96 1014 10 16.0934 0 0
6:58 am 06:58 Mostly Cloudy 38 3.1 24 -4.6 57 57 SW 7 11 29.94 1014 10 16.0934 0 0
9:58 am 09:58 Mostly Cloudy 35 1.4 22 -5.3 61 61 SW 6 9 29.83 1010 10 16.0934 0 0
10:58 am 10:58 Mostly Cloudy 35 1.4 20 -6.7 55 55 SW 6 9 29.82 1010 10 16.0934 0 0
11:58 am 11:58 Mostly Cloudy 44 6.5 14 -10 30 30 ESE 6 9 29.8 1009 10 16.0934 0 0
12:58 pm 12:58 Mostly Cloudy 34 1 23 -5 65 65 W 5 7 29.86 1011 10 16.0934 0 0
1:58 pm 13:58 Mostly Cloudy 35 1.7 22 -5.3 60 60 SW 7 11 29.88 1012 10 16.0934 0 0
2:58 pm 14:58 Cloudy 38 3.4 22 -5.7 52 52 WSW 6 9 29.87 1012 10 16.0934 0 0
3:58 pm 15:58 Mostly Sunny 39 4 21 -6 48 48 WSW 5 7 29.9 1013 10 16.0934 0 0
4:58 pm 16:58 Sunny 44 6.8 19 -7 37 37 SW 5 7 29.87 1012 10 16.0934 0 0
5:58 pm 17:58 Sunny 44 6.6 27 -2.8 51 51 Calm 29.85 1011 10 16.0934 0 0
6:58 pm 18:58 Mostly Sunny 44 6.8 25 -4 46 46 Calm 29.81 1009 10 16.0934 0 0
7:58 pm 19:58 Mostly Sunny 48 8.9 24 -4.7 38 38 S 5 7 29.75 1008 10 16.0934 0 0
8:58 pm 20:58 Partly Cloudy 52 11.1 21 -6 30 30 Calm 29.73 1007 10 16.0934 0 0
9:58 pm 21:58 Sunny 47 8.3 25 -3.7 43 43 ESE 8 13 29.77 1008 10 16.0934 0 0
10:58 pm 22:58 Sunny 46 7.7 25 -4 44 44 ESE 6 9 29.77 1008 10 16.0934 0 0
11:58 pm 23:58 Clear 43 5.9 20 -6.5 41 41 SSE 10 17 29.75 1007 10 16.0934 0 0

Powered by AerisWeather